Location: Budapest
(47.4979°N, 19.0402°E)
Time: 13:50:22
(UTC+01:00)

Amateur Radio Satellites - All Passes

Search period start: 18 December 2017 13:20
Search period end: 19 December 2017 13:20
Location: Budapest, 47.4979°N, 19.0402°E

Satellite Date Start Highest point End Downlink Frequencies (MHz)
Time Altitude Azimuth
SO-50 18 Dec 13:23:34 13:26:41 19° 112° (ESE) 13:29:50 436.795
AO-91 18 Dec 13:29:40 13:33:07 20° 266° (W) 13:36:21 145.960
DX 1 18 Dec 13:35:32 13:39:52 63° 102° (ESE) 13:44:09 434.975-435.025
ISS 18 Dec 13:43:59 13:47:08 40° 7° (N) 13:50:17 437.550
MOZHAYETS 4 18 Dec 13:48:42 13:51:22 15° 89° (E) 13:54:01
YUBILEINY 18 Dec 13:52:06 14:00:54 74° 266° (W) 14:09:36 435.215
DOVE 4 18 Dec 13:54:59 13:56:12 11° 55° (NE) 13:57:24 437.250
M-CUBED/EXP-1 PRIME 18 Dec 14:11:26 14:15:55 85° 251° (WSW) 14:20:36 437.505
Gurwin Techsat 1B 18 Dec 14:17:39 14:20:23 14° 273° (W) 14:23:08 435.225
ITAMSAT 1 18 Dec 14:21:23 14:26:34 73° 72° (ENE) 14:31:46 435.822/435.867
nSIGHT-1 18 Dec 14:23:50 14:27:02 59° 18° (NNE) 14:30:13 .
VELOX 1 18 Dec 14:31:05 14:32:33 11° 304° (NW) 14:34:01 145.980
RS-15 18 Dec 14:36:12 14:48:37 86° 308° (NW) 15:00:51 29.354- 29.394
BEESAT 18 Dec 14:43:46 14:48:04 33° 96° (E) 14:52:22 436.000
AO-7 18 Dec 14:44:14 14:52:22 58° 257° (WSW) 15:00:37 .
UKube-1 18 Dec 14:47:26 14:51:28 39° 292° (WNW) 14:55:27 .
50 SAT 18 Dec 14:52:08 14:53:35 13° 297° (WNW) 14:55:02 437.505
SO-50 18 Dec 15:02:15 15:06:41 64° 312° (NW) 15:11:13 436.795
HO-68 18 Dec 15:07:40 15:09:37 11° 39° (NE) 15:11:33 435.675
DX 1 18 Dec 15:12:50 15:15:34 17° 300° (WNW) 15:18:19 434.975-435.025
ITUPSAT 1 18 Dec 15:14:38 15:19:24 62° 102° (ESE) 15:24:07 437.325
ISS 18 Dec 15:20:30 15:23:48 78° 208° (SSW) 15:27:06 437.550
CUBESAT XI-V 18 Dec 15:21:38 15:25:51 31° 95° (E) 15:30:02 437.345
MOZHAYETS 4 18 Dec 15:24:23 15:28:59 69° 287° (WNW) 15:33:36
DOVE 4 18 Dec 15:27:51 15:33:00 64° 73° (ENE) 15:37:56 437.250
XW-2B 18 Dec 15:33:21 15:34:46 12° 60° (ENE) 15:36:11 145.730 - 145.750
XW-2F 18 Dec 15:41:10 15:43:03 13° 61° (ENE) 15:44:57 145.980 - 146.000
O/OREOS (USA 219) 18 Dec 15:41:36 15:45:13 23° 51° (NE) 15:48:48 437.305
M-CUBED/EXP-1 PRIME 18 Dec 15:49:41 15:50:58 11° 269° (W) 15:52:16 437.505
YUBILEINY 18 Dec 15:51:09 15:56:03 16° 288° (WNW) 16:00:58 435.215
XW-2C 18 Dec 15:59:14 16:02:10 22° 66° (ENE) 16:05:09 145.795 - 145.815
nSIGHT-1 18 Dec 16:00:13 16:03:06 30° 217° (SW) 16:05:59 .
ITAMSAT 1 18 Dec 16:03:15 16:06:35 17° 270° (W) 16:09:55 435.822/435.867
PCSat 18 Dec 16:04:45 16:06:17 11° 101° (ESE) 16:07:49 145.827
CUTE-I 18 Dec 16:16:47 16:21:40 37° 65° (ENE) 16:26:33 437.470
BEESAT 18 Dec 16:21:34 16:25:49 33° 295° (WNW) 16:30:04 436.000
CUTE 1.7 + AOD 2 18 Dec 16:28:36 16:31:00 15° 60° (ENE) 16:33:26 437.475
NUDT-PHONESAT 18 Dec 16:34:57 16:38:20 34° 70° (ENE) 16:41:46 437.300
LilacSat-2 18 Dec 16:39:56 16:43:44 64° 74° (ENE) 16:47:35 437.200
KKS-1 18 Dec 16:44:13 16:48:23 39° 98° (E) 16:52:31 437.445
AO-7 18 Dec 16:44:32 16:46:59 11° 278° (W) 16:49:29 .
SO-50 18 Dec 16:45:08 16:48:02 16° 333° (NNW) 16:50:57 436.795
KAITUO 1B 18 Dec 16:45:57 16:49:35 49° 72° (ENE) 16:53:16 145.475/437.950
XW-2D 18 Dec 16:48:31 16:52:18 77° 74° (ENE) 16:56:09 145.860 - 145.880
HO-68 18 Dec 16:48:52 16:55:32 43° 62° (ENE) 17:02:14 435.675
RS-15 18 Dec 16:51:29 17:02:56 41° 336° (NNW) 17:14:06 29.354- 29.394
ITUPSAT 1 18 Dec 16:53:24 16:56:46 19° 300° (WNW) 17:00:08 437.325
ISS 18 Dec 16:57:56 16:59:50 15° 224° (SW) 17:01:45 437.550
CUBESAT XI-V 18 Dec 16:58:58 17:03:12 34° 293° (WNW) 17:07:25 437.345
XW-2B 18 Dec 17:04:35 17:08:22 73° 258° (WSW) 17:12:13 145.730 - 145.750
MOZHAYETS 4 18 Dec 17:04:35 17:05:17 10° 305° (NW) 17:05:59
DOVE 4 18 Dec 17:07:20 17:11:01 19° 270° (W) 17:14:37 437.250
XW-2F 18 Dec 17:12:55 17:16:41 61° 260° (W) 17:20:28 145.980 - 146.000
STARS 18 Dec 17:15:20 17:19:18 33° 97° (E) 17:23:14 437.465
O/OREOS (USA 219) 18 Dec 17:20:33 17:24:54 49° 250° (WSW) 17:29:12 437.305
SEEDS 18 Dec 17:31:09 17:35:02 36° 69° (ENE) 17:38:57 437.485
XW-2C 18 Dec 17:32:41 17:36:10 34° 263° (W) 17:39:41 145.795 - 145.815
AAUSAT CUBESAT 2 18 Dec 17:38:00 17:41:06 20° 64° (ENE) 17:44:13 437.432
XW-2A 18 Dec 17:38:59 17:41:07 16° 64° (ENE) 17:43:16 145.665 - 145.685
PCSat 18 Dec 17:43:18 17:48:41 71° 120° (ESE) 17:54:06 145.827
UWE-3 18 Dec 17:49:04 17:52:43 31° 68° (ENE) 17:56:24 435.000/436.395/437.385
CUTE-I 18 Dec 17:56:47 18:01:42 36° 264° (W) 18:06:38 437.470
CUBEBUG 2 18 Dec 17:57:48 18:01:55 66° 74° (ENE) 18:06:03 437.445
CUTE 1.7 + AOD 2 18 Dec 18:02:04 18:06:18 69° 258° (WSW) 18:10:36 437.475
ZACube-1 18 Dec 18:04:47 18:08:12 25° 65° (ENE) 18:11:38 437.345
NUDT-PHONESAT 18 Dec 18:09:34 18:12:17 19° 267° (W) 18:15:02 437.300
LilacSat-2 18 Dec 18:17:02 18:18:26 12° 272° (W) 18:19:50 437.200
Oscar 11 18 Dec 18:17:08 18:20:27 22° 64° (ENE) 18:23:46 .
KKS-1 18 Dec 18:21:08 18:24:46 25° 296° (WNW) 18:28:21 437.445
KAITUO 1B 18 Dec 18:21:45 18:23:50 14° 270° (W) 18:25:57 145.475/437.950
AO-73 18 Dec 18:35:25 18:39:21 44° 70° (ENE) 18:43:20 145.935
HO-68 18 Dec 18:36:26 18:43:15 45° 261° (W) 18:50:07 435.675
BEESAT 3 18 Dec 18:39:32 18:43:18 42° 120° (ESE) 18:47:06 437.485
STARS 18 Dec 18:51:49 18:55:33 28° 295° (WNW) 18:59:15 437.465
STRAND 1 18 Dec 19:02:30 19:07:29 51° 100° (E) 19:12:27 437.568
FO-29 18 Dec 19:07:09 19:12:31 25° 88° (E) 19:17:22 435.910
SEEDS 18 Dec 19:07:20 19:10:48 24° 267° (W) 19:14:17 437.485
RS-15 18 Dec 19:08:34 19:19:26 35° 10° (N) 19:29:52 29.354- 29.394
XW-2A 18 Dec 19:10:25 19:13:32 36° 262° (W) 19:16:42 145.665 - 145.685
AAUSAT CUBESAT 2 18 Dec 19:12:16 19:16:16 44° 262° (W) 19:20:19 437.432
UWE-3 18 Dec 19:25:42 19:29:12 26° 266° (W) 19:32:44 435.000/436.395/437.385
PCSat 18 Dec 19:28:04 19:32:36 26° 321° (NW) 19:37:10 145.827
BEESAT 2 18 Dec 19:29:54 19:33:41 40° 120° (ESE) 19:37:30 435.950
DELFI C3 18 Dec 19:34:11 19:37:32 26° 67° (ENE) 19:40:53 145.870
CUBEBUG 2 18 Dec 19:37:11 19:39:01 13° 271° (W) 19:40:51 437.445
ZACube-1 18 Dec 19:40:36 19:44:21 33° 264° (W) 19:48:10 437.345
Oscar 11 18 Dec 19:52:11 19:56:18 44° 261° (W) 20:00:29 .
SO-50 18 Dec 20:10:26 20:12:57 14° 23° (NNE) 20:15:30 436.795
AO-73 18 Dec 20:12:54 20:15:49 19° 269° (W) 20:18:48 145.935
AO-85 18 Dec 20:15:01 20:18:26 28° 116° (ESE) 20:22:00 145.980
BEESAT 3 18 Dec 20:17:31 20:20:58 27° 320° (NW) 20:24:26 437.485
Max Valier Satellite 18 Dec 20:23:59 20:27:36 60° 73° (ENE) 20:31:15 145.860
EO-88 18 Dec 20:41:40 20:45:16 67° 74° (ENE) 20:48:56 145.990 - 145.960
STRAND 1 18 Dec 20:42:17 20:46:22 25° 298° (WNW) 20:50:26 437.568
FO-29 18 Dec 20:51:26 20:58:16 65° 290° (WNW) 21:04:14 435.910
LO-87 18 Dec 20:59:52 21:01:59 15° 64° (ENE) 21:04:06 145.935 - 145.965
ESTCUBE 1 18 Dec 21:03:34 21:06:42 19° 61° (ENE) 21:09:50 437.505/2401.250
BEESAT 2 18 Dec 21:07:57 21:11:31 29° 319° (NW) 21:15:05 435.950
TIGRISAT 18 Dec 21:08:16 21:12:18 35° 97° (E) 21:16:23 435.000
DELFI C3 18 Dec 21:08:39 21:12:11 30° 264° (W) 21:15:43 145.870
UNISAT 6 18 Dec 21:12:41 21:16:52 42° 98° (E) 21:21:07 437.425
PCSat 18 Dec 21:16:52 21:18:00 11° 346° (NNW) 21:19:10 145.827
RS-15 18 Dec 21:22:53 21:34:48 63° 42° (NE) 21:46:03 29.354- 29.394
SO-50 18 Dec 21:50:01 21:54:31 47° 45° (NE) 21:59:05 436.795
AO-85 18 Dec 21:54:58 21:58:42 36° 317° (NW) 22:02:40 145.980
Max Valier Satellite 18 Dec 22:00:37 22:01:48 11° 271° (W) 22:03:00 145.860
PRISM 18 Dec 22:06:38 22:10:33 42° 99° (E) 22:14:26 437.425
VELOX 1 18 Dec 22:17:53 22:20:46 17° 60° (ENE) 22:23:38 145.980
FALCONSAT 3 18 Dec 22:19:10 22:20:51 13° 182° (S) 22:22:32 435.103
EO-88 18 Dec 22:19:12 22:19:20 10° 272° (W) 22:19:29 145.990 - 145.960
SPROUT 18 Dec 22:23:34 22:27:07 27° 66° (ENE) 22:30:41 437.525
LO-87 18 Dec 22:31:41 22:35:02 43° 261° (W) 22:38:26 145.935 - 145.965
EO-79 18 Dec 22:33:38 22:35:20 12° 88° (E) 22:37:02 145.935-145.965
FO-29 18 Dec 22:38:11 22:41:52 15° 313° (NW) 22:45:21 435.910
ESTCUBE 1 18 Dec 22:38:37 22:43:04 59° 259° (W) 22:47:35 437.505/2401.250
AIST 2D 18 Dec 22:44:50 22:48:17 45° 99° (E) 22:51:41 435.315
TIGRISAT 18 Dec 22:45:12 22:48:52 27° 294° (WNW) 22:52:36 435.000
UNISAT 6 18 Dec 22:49:55 22:53:22 23° 296° (WNW) 22:56:50 437.425
POLYITAN 1 18 Dec 22:56:37 22:59:52 21° 93° (E) 23:03:07 437.675
DX 1 18 Dec 23:01:14 23:02:38 11° 56° (NE) 23:04:01 434.975-435.025
PCSat 18 Dec 23:03:04 23:04:08 11° 13° (NNE) 23:05:12 145.827
DUCHIFAT 1 18 Dec 23:20:12 23:23:50 28° 95° (E) 23:27:29 145.980
QB50P2 18 Dec 23:22:11 23:26:13 42° 98° (E) 23:30:15 145.880/145.840
SO-50 18 Dec 23:30:49 23:34:49 28° 244° (WSW) 23:38:51 436.795
RS-15 18 Dec 23:35:57 23:47:01 50° 248° (WSW) 23:57:32 29.354- 29.394
AO-85 18 Dec 23:38:59 23:40:24 11° 341° (NNW) 23:41:50 145.980
PRISM 18 Dec 23:42:31 23:45:33 20° 297° (WNW) 23:48:33 437.425
BUGSAT 1 18 Dec 23:44:26 23:46:11 12° 89° (E) 23:47:57 437.445
50 SAT 18 Dec 23:48:01 23:50:30 21° 67° (ENE) 23:52:58 437.505
NANOSAT C BR1 18 Dec 23:48:55 23:53:07 64° 102° (ESE) 23:57:18 145.865
VELOX 1 18 Dec 23:52:19 23:56:44 64° 258° (WSW) 00:01:11 145.980
SPROUT 18 Dec 23:59:04 00:02:54 33° 264° (W) 00:06:46 437.525
EO-79 19 Dec 00:07:22 00:11:35 73° 286° (WNW) 00:15:47 145.935-145.965
UKube-1 19 Dec 00:09:02 00:12:48 30° 66° (ENE) 00:16:35 .
AIST 2D 19 Dec 00:19:02 00:21:05 15° 297° (WNW) 00:23:08 435.315
POLYITAN 1 19 Dec 00:31:49 00:35:49 41° 290° (WNW) 00:39:48 437.675
DX 1 19 Dec 00:33:42 00:38:05 82° 72° (ENE) 00:42:29 434.975-435.025
PCSat 19 Dec 00:45:01 00:49:33 26° 38° (NE) 00:54:03 145.827
Gurwin Techsat 1B 19 Dec 00:47:42 00:52:12 27° 94° (E) 00:56:39 435.225
ITUPSAT 1 19 Dec 00:49:05 00:51:53 16° 57° (ENE) 00:54:41 437.325
MOZHAYETS 4 19 Dec 00:53:23 00:56:51 22° 62° (ENE) 01:00:19
DUCHIFAT 1 19 Dec 00:55:47 00:59:29 31° 293° (WNW) 01:03:10 145.980
QB50P2 19 Dec 00:58:31 01:01:46 22° 296° (WNW) 01:05:00 145.880/145.840
YUBILEINY 19 Dec 01:01:58 01:09:07 29° 80° (E) 01:16:16 435.215
Oscar 19 19 Dec 01:08:49 01:13:56 53° 100° (E) 01:19:01 437.125/150
AO-91 19 Dec 01:14:59 01:18:22 56° 101° (E) 01:21:41 145.960
BEESAT 3 19 Dec 01:16:19 01:18:39 15° 30° (NNE) 01:20:57 437.485
BUGSAT 1 19 Dec 01:17:56 01:21:58 66° 287° (WNW) 01:26:01 437.445
50 SAT 19 Dec 01:19:46 01:22:20 22° 264° (W) 01:24:54 437.505
NANOSAT C BR1 19 Dec 01:25:53 01:28:21 15° 300° (WNW) 01:30:49 145.865
UKube-1 19 Dec 01:44:57 01:48:46 30° 264° (W) 01:52:38 .
BEESAT 19 Dec 01:52:58 01:57:36 55° 70° (ENE) 02:02:15 436.000
BEESAT 2 19 Dec 02:07:23 02:09:47 15° 30° (NNE) 02:12:11 435.950
DX 1 19 Dec 02:13:22 02:14:50 11° 272° (W) 02:16:17 434.975-435.025
ITUPSAT 1 19 Dec 02:24:21 02:29:06 79° 256° (WSW) 02:33:53 437.325
Gurwin Techsat 1B 19 Dec 02:27:16 02:32:22 47° 292° (WNW) 02:37:26 435.225
CUBESAT XI-V 19 Dec 02:27:39 02:32:05 44° 69° (ENE) 02:36:34 437.345
PCSat 19 Dec 02:28:04 02:33:29 73° 240° (WSW) 02:38:53 145.827
MOZHAYETS 4 19 Dec 02:29:16 02:33:41 49° 261° (W) 02:38:09
ITAMSAT 1 19 Dec 02:31:46 02:35:27 19° 91° (E) 02:39:08 435.822/435.867
AO-7 19 Dec 02:41:56 02:49:44 41° 98° (E) 02:57:30 .
Oscar 19 19 Dec 02:48:45 02:52:56 25° 299° (WNW) 02:57:05 437.125/150
BEESAT 3 19 Dec 02:52:54 02:56:53 73° 51° (NE) 03:00:45 437.485
AO-91 19 Dec 02:53:29 02:54:23 11° 300° (WNW) 02:55:18 145.960
YUBILEINY 19 Dec 02:56:19 03:05:07 72° 282° (WNW) 03:14:01 435.215
AO-85 19 Dec 03:01:58 03:05:13 18° 31° (NNE) 03:08:35 145.980
M-CUBED/EXP-1 PRIME 19 Dec 03:21:13 03:25:28 42° 103° (ESE) 03:29:26 437.505
DOVE 4 19 Dec 03:25:55 03:27:25 12° 86° (E) 03:28:53 437.250
BEESAT 19 Dec 03:32:18 03:35:42 19° 268° (W) 03:39:08 436.000
BEESAT 2 19 Dec 03:44:11 03:48:14 71° 51° (NE) 03:52:13 435.950
KKS-1 19 Dec 03:44:57 03:49:18 54° 71° (ENE) 03:53:40 437.445
CUBESAT XI-V 19 Dec 04:05:53 04:09:38 24° 268° (W) 04:13:27 437.345
ITAMSAT 1 19 Dec 04:10:15 04:15:22 63° 289° (WNW) 04:20:28 435.822/435.867
PCSat 19 Dec 04:14:11 04:15:54 11° 258° (WSW) 04:17:38 145.827
STARS 19 Dec 04:14:37 04:18:47 45° 69° (ENE) 04:22:58 437.465
BEESAT 3 19 Dec 04:32:00 04:33:50 13° 250° (WSW) 04:35:39 437.485
CUTE-I 19 Dec 04:33:41 04:34:05 10° 84° (E) 04:34:29 437.470
AO-7 19 Dec 04:34:39 04:42:45 55° 299° (WNW) 04:50:48 .
NO-84 19 Dec 04:38:06 04:40:35 25° 134° (SE) 04:43:12 435.350 FM
AO-85 19 Dec 04:41:38 04:46:22 73° 51° (NE) 04:51:27 145.980
XW-2F 19 Dec 04:43:32 04:44:43 11° 88° (E) 04:45:54 145.980 - 146.000
STRAND 1 19 Dec 04:44:55 04:48:06 17° 57° (ENE) 04:51:16 437.568
M-CUBED/EXP-1 PRIME 19 Dec 04:55:55 04:59:35 25° 303° (WNW) 05:03:05 437.505
YUBILEINY 19 Dec 04:57:59 05:03:47 19° 307° (NW) 05:09:38 435.215
DOVE 4 19 Dec 05:01:19 05:05:47 77° 285° (WNW) 05:10:00 437.250
XW-2C 19 Dec 05:02:02 05:04:54 20° 92° (E) 05:07:45 145.795 - 145.815
FO-29 19 Dec 05:22:11 05:27:53 23° 53° (NE) 05:33:27 435.910
KKS-1 19 Dec 05:23:09 05:26:11 18° 269° (W) 05:29:13 437.445
BEESAT 2 19 Dec 05:23:17 05:25:24 14° 249° (WSW) 05:27:30 435.950
NUDT-PHONESAT 19 Dec 05:35:07 05:38:29 30° 96° (E) 05:41:50 437.300
LilacSat-2 19 Dec 05:43:51 05:47:43 62° 100° (E) 05:51:34 437.200
CUTE 1.7 + AOD 2 19 Dec 05:44:29 05:47:19 17° 90° (E) 05:50:07 437.475
CUBEBUG 2 19 Dec 05:47:00 05:48:16 11° 88° (E) 05:49:33 437.445
KAITUO 1B 19 Dec 05:47:20 05:51:00 44° 99° (E) 05:54:37 145.475/437.950
XW-2D 19 Dec 05:51:34 05:55:26 73° 102° (ESE) 05:59:16 145.860 - 145.880
STARS 19 Dec 05:52:02 05:55:20 21° 267° (W) 05:58:39 437.465
ITAMSAT 1 19 Dec 05:52:18 05:53:50 11° 309° (NW) 05:55:22 435.822/435.867
O/OREOS (USA 219) 19 Dec 05:59:28 06:01:22 12° 98° (E) 06:03:16 437.305
HO-68 19 Dec 06:00:16 06:06:34 32° 94° (E) 06:12:48 435.675
XW-2B 19 Dec 06:07:39 06:11:32 77° 285° (WNW) 06:15:21 145.730 - 145.750
CUTE-I 19 Dec 06:09:44 06:15:05 72° 103° (ESE) 06:20:23 437.470
NO-84 19 Dec 06:14:40 06:17:37 46° 335° (NNW) 06:20:49 435.350 FM
XW-2F 19 Dec 06:15:26 06:19:15 66° 286° (WNW) 06:23:03 145.980 - 146.000
STRAND 1 19 Dec 06:21:31 06:26:38 82° 256° (WSW) 06:31:47 437.568
AO-85 19 Dec 06:22:58 06:26:24 19° 248° (WSW) 06:29:58 145.980
AO-7 19 Dec 06:28:56 06:33:45 17° 322° (NW) 06:38:35 .
XW-2A 19 Dec 06:30:27 06:31:06 10° 89° (E) 06:31:46 145.665 - 145.685
XW-2C 19 Dec 06:35:37 06:39:12 37° 290° (WNW) 06:42:45 145.795 - 145.815
DOVE 4 19 Dec 06:41:59 06:42:36 10° 305° (NW) 06:43:13 437.250
SEEDS 19 Dec 06:46:42 06:50:48 44° 98° (E) 06:54:51 437.485
AAUSAT CUBESAT 2 19 Dec 06:51:13 06:54:31 22° 93° (E) 06:57:47 437.432
FO-29 19 Dec 07:04:01 07:11:53 82° 73° (ENE) 07:19:37 435.910
NUDT-PHONESAT 19 Dec 07:09:11 07:12:11 23° 294° (WNW) 07:15:11 437.300
UWE-3 19 Dec 07:10:34 07:14:46 45° 99° (E) 07:19:03 435.000/436.395/437.385
CUTE 1.7 + AOD 2 19 Dec 07:19:16 07:23:28 53° 288° (WNW) 07:27:38 437.475
LilacSat-2 19 Dec 07:19:30 07:21:31 14° 299° (WNW) 07:23:32 437.200
CUBEBUG 2 19 Dec 07:21:07 07:25:25 83° 287° (WNW) 07:29:51 437.445
KAITUO 1B 19 Dec 07:22:07 07:24:39 17° 296° (WNW) 07:27:09 145.475/437.950
ZACube-1 19 Dec 07:24:42 07:28:44 35° 97° (E) 07:32:50 437.345
XW-2D 19 Dec 07:27:34 07:29:03 12° 300° (WNW) 07:30:32 145.860 - 145.880
O/OREOS (USA 219) 19 Dec 07:35:31 07:40:06 82° 296° (WNW) 07:44:41 437.305
Oscar 11 19 Dec 07:36:05 07:39:48 27° 94° (E) 07:43:30 .
HO-68 19 Dec 07:47:39 07:54:39 59° 294° (WNW) 08:01:37 435.675
CUTE-I 19 Dec 07:50:49 07:54:36 20° 302° (WNW) 07:58:21 437.470
NO-84 19 Dec 07:52:47 07:55:27 22° 357° (N) 07:58:16 435.350 FM
AO-73 19 Dec 07:55:23 07:59:45 63° 101° (E) 08:04:12 145.935
XW-2A 19 Dec 08:00:46 08:04:09 57° 287° (WNW) 08:07:31 145.665 - 145.685
STRAND 1 19 Dec 08:04:58 08:06:37 11° 274° (W) 08:08:17 437.568
TIGRISAT 19 Dec 08:09:57 08:14:00 44° 70° (ENE) 08:18:02 435.000
UNISAT 6 19 Dec 08:14:29 08:18:38 53° 72° (ENE) 08:22:48 437.425
SEEDS 19 Dec 08:23:01 08:26:12 21° 296° (WNW) 08:29:21 437.485
AAUSAT CUBESAT 2 19 Dec 08:26:13 08:30:04 37° 291° (WNW) 08:33:54 437.432
nSIGHT-1 19 Dec 08:40:28 08:41:57 13° 134° (SE) 08:43:25 .
DELFI C3 19 Dec 08:41:48 08:45:08 26° 94° (E) 08:48:26 145.870
UWE-3 19 Dec 08:47:39 08:50:57 22° 296° (WNW) 08:54:19 435.000/436.395/437.385
FO-29 19 Dec 08:51:24 08:57:36 25° 272° (W) 09:03:45 435.910
PRISM 19 Dec 08:58:23 09:02:23 47° 71° (ENE) 09:06:23 437.425
CUBEBUG 2 19 Dec 09:00:15 09:01:22 11° 302° (WNW) 09:02:29 437.445
ZACube-1 19 Dec 09:01:11 09:04:54 27° 294° (WNW) 09:08:40 437.345
Oscar 11 19 Dec 09:12:02 09:15:59 34° 292° (WNW) 09:19:55 .
O/OREOS (USA 219) 19 Dec 09:17:50 09:20:17 14° 316° (NW) 09:22:43 437.305
AIST 2D 19 Dec 09:21:56 09:24:57 27° 69° (ENE) 09:28:00 435.315
Max Valier Satellite 19 Dec 09:24:00 09:27:40 52° 100° (E) 09:31:20 145.860
EO-79 19 Dec 09:28:55 09:31:19 15° 60° (ENE) 09:33:43 145.935-145.965
NO-84 19 Dec 09:30:19 09:33:24 31° 17° (NNE) 09:36:44 435.350 FM
AO-73 19 Dec 09:32:44 09:35:32 17° 299° (WNW) 09:38:21 145.935
HO-68 19 Dec 09:37:13 09:40:58 15° 316° (NW) 09:44:42 435.675
ISS 19 Dec 09:38:40 09:41:34 30° 143° (SE) 09:44:31 437.550
EO-88 19 Dec 09:40:16 09:43:54 55° 100° (E) 09:47:30 145.990 - 145.960
TIGRISAT 19 Dec 09:47:47 09:50:54 20° 268° (W) 09:54:02 435.000
POLYITAN 1 19 Dec 09:52:07 09:55:30 24° 65° (ENE) 09:58:54 437.675
UNISAT 6 19 Dec 09:52:59 09:55:41 16° 269° (W) 09:58:25 437.425
LO-87 19 Dec 09:56:40 09:57:49 11° 89° (E) 09:58:57 145.935 - 145.965
nSIGHT-1 19 Dec 10:14:26 10:17:38 70° 153° (SSE) 10:20:51 .
DUCHIFAT 1 19 Dec 10:14:47 10:18:27 31° 68° (ENE) 10:22:09 145.980
DELFI C3 19 Dec 10:16:26 10:19:51 29° 293° (WNW) 10:23:16 145.870
QB50P2 19 Dec 10:17:30 10:21:31 47° 71° (ENE) 10:25:34 145.880/145.840
ESTCUBE 1 19 Dec 10:28:06 10:31:46 23° 93° (E) 10:35:23 437.505/2401.250
PRISM 19 Dec 10:35:02 10:37:54 18° 268° (W) 10:40:46 437.425
Gurwin Techsat 1B 19 Dec 10:36:54 10:38:05 11° 50° (NE) 10:39:15 435.225
BUGSAT 1 19 Dec 10:37:13 10:39:25 14° 60° (ENE) 10:41:38 437.445
NANOSAT C BR1 19 Dec 10:43:37 10:47:45 71° 75° (ENE) 10:51:56 145.865
Oscar 19 19 Dec 10:51:55 10:55:18 18° 57° (ENE) 10:58:41 437.125/150
AIST 2D 19 Dec 10:55:19 10:58:07 22° 266° (W) 11:00:57 435.315
Max Valier Satellite 19 Dec 10:58:59 11:01:05 15° 298° (WNW) 11:03:12 145.860
EO-79 19 Dec 11:02:25 11:06:35 65° 258° (WSW) 11:10:45 145.935-145.965
YUBILEINY 19 Dec 11:06:56 11:12:34 18° 52° (NE) 11:18:10 435.215
NO-84 19 Dec 11:07:20 11:10:54 75° 216° (SW) 11:14:46 435.350 FM
ISS 19 Dec 11:14:39 11:17:54 62° 341° (NNW) 11:21:12 437.550
EO-88 19 Dec 11:15:12 11:17:05 14° 298° (WNW) 11:18:58 145.990 - 145.960
POLYITAN 1 19 Dec 11:27:16 11:31:07 36° 263° (W) 11:35:00 437.675
LO-87 19 Dec 11:28:03 11:31:33 56° 287° (WNW) 11:35:02 145.935 - 145.965
VELOX 1 19 Dec 11:39:41 11:42:50 19° 92° (E) 11:45:57 145.980
SPROUT 19 Dec 11:40:51 11:44:39 31° 96° (E) 11:48:26 437.525
DUCHIFAT 1 19 Dec 11:50:35 11:54:07 27° 265° (W) 11:57:41 145.980
nSIGHT-1 19 Dec 11:50:55 11:54:00 41° 351° (N) 11:57:05 .
RS-15 19 Dec 11:52:58 12:01:55 25° 99° (E) 12:10:47 29.354- 29.394
QB50P2 19 Dec 11:54:38 11:57:33 18° 268° (W) 12:00:29 145.880/145.840
AO-7 19 Dec 11:55:10 12:00:59 22° 43° (NE) 12:06:48 .
ESTCUBE 1 19 Dec 12:04:26 12:08:44 42° 291° (WNW) 12:12:59 437.505/2401.250
BUGSAT 1 19 Dec 12:10:20 12:14:18 62° 258° (WSW) 12:18:18 437.445
Gurwin Techsat 1B 19 Dec 12:11:44 12:16:57 58° 70° (ENE) 12:22:11 435.225
AO-91 19 Dec 12:14:10 12:18:47 77° 74° (ENE) 12:22:54 145.960
DX 1 19 Dec 12:21:00 12:22:07 11° 88° (E) 12:23:14 434.975-435.025
NANOSAT C BR1 19 Dec 12:22:15 12:23:57 12° 272° (W) 12:25:40 145.865
Oscar 19 19 Dec 12:28:51 12:34:00 78° 256° (WSW) 12:39:12 437.125/150
50 SAT 19 Dec 12:33:38 12:34:22 11° 91° (E) 12:35:06 437.505
M-CUBED/EXP-1 PRIME 19 Dec 12:36:56 12:39:25 15° 51° (NE) 12:41:56 437.505
NO-84 19 Dec 12:45:54 12:47:43 13° 231° (SW) 12:49:36 435.350 FM
ISS 19 Dec 12:51:37 12:54:45 38° 1° (N) 12:57:51 437.550
YUBILEINY 19 Dec 13:02:29 13:11:19 70° 77° (ENE) 13:20:03 435.215
